Weather in Xam Neua

Laos     20°24′47″N   104°02′59″E
В апреле 2022 года жителям России запретили посещать сайт meteo.paraplan.net по решению Генеральной прокуратуры. Аудитория сайта уменьшилась в 10 раз. Владельцы сайта не видят смысла в поддержке погодного сервера в таких условиях. Сайт будет закрыт в октябре.
temp.,
°C
wind,
m/s
gust,
m/s
humid.,
%
clouds,
%
prec.,
mm/h
press.,
hPa
HPBL,
m
26 september, mon
mon2601:00+17se1110047 0.0 101441
04:00+16se1110048 0.0 101342
07:00+17sse119948 0.0 101495
10:00+24ene135917 0.0 10131135
13:00+27e234980 0.0 10101915
16:00+24se136757 0.0 1009466
19:00+18se12902 0.0 101136
22:00+17sse119524 0.0 101430
27 september, tue
tue2701:00+16sse1197100 0.0 101213
04:00+16sse119887 0.0 101112
07:00+18sse018978 0.0 101262
10:00+26ene125516 0.0 10111374
13:00+28ene234444 0.0 10072243
16:00+25ene2564100 0.0 1007603
19:00+19ese1191100 0.0 100922
22:00+18sse1197100 0.0 101115
28 september, wed
wed2801:00+17sw1196100 0.0 101011
04:00+17wnw0096100 0.0 100812
07:00+19n0386100 0.0 1009131
10:00+25ne4115481 0.0 10081728
13:00+22ne31269100 0.1 10071562
16:00+19ene21095100 0.7 1006776
19:00+19ne21293100 0.9 10081084
22:00+18ne21199100 3.3 1009887
29 september, thu
thu2901:00+18nne2999100 6.1 1007904
04:00+18nne29100100 4.6 1006860
07:00+17nne31199100 11.5 1008864
10:00+17nne17100100 4.5 1009531
13:00+18nne15100100 5.3 1007351
16:00+18nne16100100 0.3 1006512
19:00+18nne13100100 0.6 1009256
22:00+17n12100100 0.8 1011159
30 september, fri
fri3001:00+18nne12100100 1.0 1010228
04:00+17n12100100 2.1 1008202
07:00+18e12100100 7.8 1011181
10:00+18ne1299100 0.3 1012180
13:00+18ne11100100 0.9 1010110
16:00+18ne12100100 0.4 1009124
19:00+18e12100100 0.6 1010126
22:00+18ene01100100 1.2 1012117